Time,TemperatureF,DewpointF,PressureIn,WindDirection,WindDirectionDegrees,WindSpeedMPH,WindSpeedGustMPH,Humidity,HourlyPrecipIn,Conditions,Clouds,dailyrainin,SoftwareType,DateUTC
2013-06-22 02:07:00,50.9,49.8,30.15,South,180,0.0,0.0,96,0.00,,---,0.00,VWS V14.01,2013-06-22 09:07:00,
2013-06-22 02:08:00,51.1,50.0,30.15,South,180,0.0,0.0,96,0.00,,---,0.00,VWS V14.01,2013-06-22 09:08:00,
2013-06-22 02:09:00,51.1,50.0,30.15,South,180,0.0,0.0,96,0.00,,---,0.00,VWS V14.01,2013-06-22 09:09:00,
2013-06-22 02:14:00,51.1,50.0,30.15,South,180,0.0,0.0,96,0.00,,---,0.00,VWS V14.01,2013-06-22 09:14:00,
2013-06-22 02:19:00,50.9,49.8,30.15,ESE,112,0.0,0.0,96,0.00,,---,0.00,VWS V14.01,2013-06-22 09:19:00,
2013-06-22 02:24:00,50.9,49.8,30.15,East,90,0.0,0.0,96,0.00,,---,0.00,VWS V14.01,2013-06-22 09:24:00,
2013-06-22 02:29:00,50.9,49.8,30.15,East,90,0.0,0.0,96,0.00,,---,0.00,VWS V14.01,2013-06-22 09:29:00,
2013-06-22 02:34:00,51.1,50.3,30.15,East,90,0.0,0.0,97,0.00,,---,0.00,VWS V14.01,2013-06-22 09:34:00,
2013-06-22 02:39:00,51.1,50.3,30.15,East,90,0.0,0.0,97,0.00,,---,0.00,VWS V14.01,2013-06-22 09:39:00,
2013-06-22 02:44:00,51.1,50.3,30.15,ESE,112,0.0,0.0,97,0.00,,---,0.00,VWS V14.01,2013-06-22 09:44:00,
2013-06-22 02:49:00,51.1,50.3,30.15,ESE,112,0.0,0.0,97,0.00,,---,0.00,VWS V14.01,2013-06-22 09:49:00,
2013-06-22 02:54:00,51.1,50.3,30.12,ESE,112,0.0,0.0,97,0.00,,---,0.00,VWS V14.01,2013-06-22 09:54:00,
2013-06-22 02:59:00,51.1,50.5,30.12,ESE,112,0.0,0.0,98,0.00,,---,0.00,VWS V14.01,2013-06-22 09:59:00,
2013-06-22 03:04:00,50.9,50.1,30.12,ESE,112,0.0,0.0,97,0.00,,---,0.00,VWS V14.01,2013-06-22 10:04:00,
2013-06-22 03:09:00,50.9,50.1,30.15,ESE,112,0.0,0.0,97,0.00,,---,0.00,VWS V14.01,2013-06-22 10:09:00,
2013-06-22 03:14:00,50.9,50.1,30.15,ESE,112,0.0,0.0,97,0.00,,---,0.00,VWS V14.01,2013-06-22 10:14:00,
2013-06-22 03:19:00,50.9,50.1,30.15,ESE,112,0.0,0.0,97,0.00,,---,0.00,VWS V14.01,2013-06-22 10:19:00,
2013-06-22 03:24:00,50.9,50.1,30.15,SE,135,0.0,0.0,97,0.00,,---,0.00,VWS V14.01,2013-06-22 10:24:00,
2013-06-22 03:29:00,50.7,50.2,30.15,South,180,0.0,0.0,98,0.00,,---,0.00,VWS V14.01,2013-06-22 10:29:00,
2013-06-22 03:34:00,50.7,49.9,30.15,SSW,202,0.0,0.0,97,0.00,,---,0.00,VWS V14.01,2013-06-22 10:34:00,
2013-06-22 03:39:00,50.5,49.7,30.12,SSW,202,0.0,0.0,97,0.00,,---,0.00,VWS V14.01,2013-06-22 10:39:00,
2013-06-22 03:44:00,50.5,49.7,30.12,SSW,202,0.0,0.0,97,0.00,,---,0.00,VWS V14.01,2013-06-22 10:44:00,
2013-06-22 03:49:00,50.5,49.7,30.12,SSW,202,0.0,0.0,97,0.00,,---,0.00,VWS V14.01,2013-06-22 10:49:00,
2013-06-22 03:54:00,50.5,50.0,30.12,South,180,0.0,0.0,98,0.00,,---,0.00,VWS V14.01,2013-06-22 10:54:00,
2013-06-22 03:59:00,50.5,50.0,30.12,South,180,0.0,0.0,98,0.00,,---,0.00,VWS V14.01,2013-06-22 10:59:00,
2013-06-22 04:04:00,50.4,49.8,30.12,South,180,0.0,0.0,98,0.00,,---,0.00,VWS V14.01,2013-06-22 11:04:00,
2013-06-22 04:09:00,50.5,50.0,30.12,South,180,0.0,0.0,98,0.00,,---,0.00,VWS V14.01,2013-06-22 11:09:00,
2013-06-22 04:14:00,50.4,49.8,30.12,South,180,0.0,0.0,98,0.00,,---,0.00,VWS V14.01,2013-06-22 11:14:00,
2013-06-22 04:19:00,50.4,49.8,30.12,South,180,0.0,0.0,98,0.00,,---,0.00,VWS V14.01,2013-06-22 11:19:00,
2013-06-22 04:24:00,50.4,49.8,30.12,South,180,0.0,0.0,98,0.00,,---,0.00,VWS V14.01,2013-06-22 11:24:00,
2013-06-22 04:29:00,50.4,49.8,30.12,South,180,0.0,0.0,98,0.00,,---,0.00,VWS V14.01,2013-06-22 11:29:00,
2013-06-22 04:34:00,50.2,49.6,30.12,South,180,0.0,0.0,98,0.00,,---,0.00,VWS V14.01,2013-06-22 11:34:00,
2013-06-22 04:39:00,50.2,49.6,30.12,SSE,158,0.0,0.0,98,0.00,,---,0.00,VWS V14.01,2013-06-22 11:39:00,
2013-06-22 04:44:00,50.2,49.6,30.12,SSE,158,0.0,0.0,98,0.00,,---,0.00,VWS V14.01,2013-06-22 11:44:00,
2013-06-22 04:49:00,50.2,49.6,30.12,ESE,112,0.0,0.0,98,0.00,,---,0.00,VWS V14.01,2013-06-22 11:49:00,
2013-06-22 04:54:00,50.2,49.6,30.12,ESE,112,0.0,0.0,98,0.00,,---,0.00,VWS V14.01,2013-06-22 11:54:00,
2013-06-22 04:59:00,50.0,49.5,30.12,ESE,112,0.0,1.1,98,0.00,,---,0.00,VWS V14.01,2013-06-22 11:59:00,
2013-06-22 05:04:00,50.0,49.5,30.12,ENE,68,0.0,0.0,98,0.00,,---,0.00,VWS V14.01,2013-06-22 12:04:00,
2013-06-22 05:09:00,49.8,49.3,30.12,East,90,0.0,0.0,98,0.00,,---,0.00,VWS V14.01,2013-06-22 12:09:00,
2013-06-22 05:14:00,49.8,49.3,30.12,WSW,248,0.0,0.0,98,0.00,,---,0.00,VWS V14.01,2013-06-22 12:14:00,
2013-06-22 05:19:00,49.6,49.1,30.12,SW,225,0.0,0.0,98,0.00,,---,0.00,VWS V14.01,2013-06-22 12:19:00,
2013-06-22 05:24:00,49.6,49.1,30.12,SSE,158,0.0,0.0,98,0.00,,---,0.00,VWS V14.01,2013-06-22 12:24:00,
2013-06-22 05:29:00,49.6,49.1,30.12,SSE,158,0.0,0.0,98,0.00,,---,0.00,VWS V14.01,2013-06-22 12:29:00,
2013-06-22 05:34:00,49.6,49.1,30.12,SSE,158,0.0,0.0,98,0.00,,---,0.00,VWS V14.01,2013-06-22 12:34:00,
2013-06-22 05:39:00,49.6,49.1,30.12,SSE,158,0.0,0.0,98,0.00,,---,0.00,VWS V14.01,2013-06-22 12:39:00,
2013-06-22 05:44:00,49.6,49.1,30.12,SSE,158,0.0,0.0,98,0.00,,---,0.00,VWS V14.01,2013-06-22 12:44:00,
2013-06-22 05:49:00,49.8,49.3,30.12,SSE,158,0.0,0.0,98,0.00,,---,0.00,VWS V14.01,2013-06-22 12:49:00,
2013-06-22 05:54:00,49.8,49.3,30.12,SSE,158,0.0,0.0,98,0.00,,---,0.00,VWS V14.01,2013-06-22 12:54:00,
2013-06-22 05:59:00,49.8,49.3,30.12,SSW,202,0.0,0.0,98,0.00,,---,0.00,VWS V14.01,2013-06-22 12:59:00,
2013-06-22 06:04:00,49.8,49.3,30.12,South,180,0.0,0.0,98,0.00,,---,0.00,VWS V14.01,2013-06-22 13:04:00,
2013-06-22 06:09:00,49.8,49.3,30.12,South,180,0.0,0.0,98,0.00,,---,0.00,VWS V14.01,2013-06-22 13:09:00,
2013-06-22 06:14:00,49.8,49.3,30.12,South,180,0.0,0.0,98,0.00,,---,0.00,VWS V14.01,2013-06-22 13:14:00,
2013-06-22 06:20:00,49.8,49.3,30.12,South,180,0.0,0.0,98,0.00,,---,0.00,VWS V14.01,2013-06-22 13:20:00,
2013-06-22 06:25:00,49.8,49.3,30.12,South,180,0.0,0.0,98,0.00,,---,0.00,VWS V14.01,2013-06-22 13:25:00,
2013-06-22 06:30:00,49.8,49.3,30.12,South,180,0.0,0.0,98,0.00,,---,0.00,VWS V14.01,2013-06-22 13:30:00,
2013-06-22 06:35:00,50.0,49.5,30.12,South,180,0.0,0.0,98,0.00,,---,0.00,VWS V14.01,2013-06-22 13:35:00,
2013-06-22 06:40:00,50.2,49.6,30.12,South,180,0.0,0.0,98,0.00,,---,0.00,VWS V14.01,2013-06-22 13:40:00,
2013-06-22 06:45:00,50.2,49.6,30.12,South,180,0.0,0.0,98,0.00,,---,0.00,VWS V14.01,2013-06-22 13:45:00,
2013-06-22 06:50:00,50.2,49.6,30.12,South,180,0.0,0.0,98,0.00,,---,0.00,VWS V14.01,2013-06-22 13:50:00,
2013-06-22 06:55:00,50.4,49.8,30.12,SW,225,0.0,0.0,98,0.00,,---,0.00,VWS V14.01,2013-06-22 13:55:00,
2013-06-22 07:00:00,50.4,49.8,30.12,South,180,0.0,0.0,98,0.00,,---,0.00,VWS V14.01,2013-06-22 14:00:00,
2013-06-22 07:05:00,50.5,50.0,30.12,SW,225,0.0,0.0,98,0.00,,---,0.00,VWS V14.01,2013-06-22 14:05:00,
2013-06-22 07:10:00,50.7,50.2,30.12,SW,225,0.0,0.0,98,0.00,,---,0.00,VWS V14.01,2013-06-22 14:10:00,
2013-06-22 07:15:00,51.1,50.5,30.12,South,180,0.0,0.0,98,0.00,,---,0.00,VWS V14.01,2013-06-22 14:15:00,
2013-06-22 07:20:00,51.1,50.5,30.12,SW,225,1.1,1.1,98,0.00,,---,0.00,VWS V14.01,2013-06-22 14:20:00,
2013-06-22 07:25:00,51.1,50.5,30.12,South,180,0.0,0.0,98,0.00,,---,0.00,VWS V14.01,2013-06-22 14:25:00,
2013-06-22 07:30:00,51.4,50.9,30.12,South,180,0.0,0.0,98,0.00,,---,0.00,VWS V14.01,2013-06-22 14:30:00,
2013-06-22 07:35:00,51.8,51.3,30.12,SSW,202,0.0,0.0,98,0.00,,---,0.00,VWS V14.01,2013-06-22 14:35:00,
2013-06-22 07:40:00,52.3,51.8,30.12,SSW,202,0.0,0.0,98,0.00,,---,0.00,VWS V14.01,2013-06-22 14:40:00,
2013-06-22 07:45:00,52.5,52.0,30.12,ESE,112,0.9,1.6,98,0.00,,---,0.00,VWS V14.01,2013-06-22 14:45:00,
2013-06-22 07:50:00,52.2,51.3,30.12,ESE,112,2.0,2.0,97,0.00,,---,0.00,VWS V14.01,2013-06-22 14:50:00,
2013-06-22 07:55:00,52.5,51.7,30.12,WSW,248,0.0,1.1,97,0.00,,---,0.00,VWS V14.01,2013-06-22 14:55:00,
2013-06-22 08:00:00,53.2,52.4,30.12,SSW,202,0.0,0.0,97,0.00,,---,0.00,VWS V14.01,2013-06-22 15:00:00,
2013-06-22 08:06:00,54.0,53.1,30.12,East,90,1.1,1.1,97,0.00,,---,0.00,VWS V14.01,2013-06-22 15:06:00,
2013-06-22 08:11:00,54.3,53.2,30.12,ESE,112,0.0,0.0,96,0.00,,---,0.00,VWS V14.01,2013-06-22 15:11:00,
2013-06-22 08:16:00,54.9,53.5,30.12,East,90,0.0,0.0,95,0.00,,---,0.00,VWS V14.01,2013-06-22 15:16:00,
2013-06-22 08:21:00,55.4,53.7,30.12,ENE,68,0.0,0.0,94,0.00,,---,0.00,VWS V14.01,2013-06-22 15:21:00,
2013-06-22 08:26:00,56.3,54.3,30.12,SE,135,0.9,1.3,93,0.00,,---,0.00,VWS V14.01,2013-06-22 15:26:00,
2013-06-22 08:31:00,57.7,55.4,30.12,SW,225,0.0,0.0,92,0.00,,---,0.00,VWS V14.01,2013-06-22 15:31:00,
2013-06-22 08:36:00,57.9,54.7,30.12,WSW,248,1.6,1.6,89,0.00,,---,0.00,VWS V14.01,2013-06-22 15:36:00,
2013-06-22 08:41:00,60.8,56.9,30.12,SSW,202,0.0,0.0,87,0.00,,---,0.00,VWS V14.01,2013-06-22 15:41:00,
2013-06-22 08:46:00,62.2,53.1,30.12,ENE,68,1.1,1.1,72,0.00,,---,0.00,VWS V14.01,2013-06-22 15:46:00,
2013-06-22 08:51:00,64.6,56.5,30.12,WSW,248,0.9,1.1,75,0.00,,---,0.00,VWS V14.01,2013-06-22 15:51:00,
2013-06-22 08:56:00,66.0,56.4,30.09,ESE,112,0.0,0.0,71,0.00,,---,0.00,VWS V14.01,2013-06-22 15:56:00,
2013-06-22 09:01:00,67.5,57.3,30.09,NNE,22,2.7,2.7,70,0.00,,---,0.00,VWS V14.01,2013-06-22 16:01:00,
2013-06-22 09:06:00,67.8,55.2,30.09,ESE,112,0.9,1.6,64,0.00,,---,0.00,VWS V14.01,2013-06-22 16:06:00,
2013-06-22 09:11:00,69.1,57.3,30.09,SSE,158,1.1,1.3,66,0.00,,---,0.00,VWS V14.01,2013-06-22 16:11:00,
2013-06-22 09:16:00,69.8,56.2,30.09,East,90,0.0,0.0,62,0.00,,---,0.00,VWS V14.01,2013-06-22 16:16:00,
2013-06-22 09:21:00,70.5,54.1,30.09,East,90,1.3,2.7,56,0.00,,---,0.00,VWS V14.01,2013-06-22 16:21:00,
2013-06-22 09:26:00,71.8,55.8,30.09,South,180,0.0,0.0,57,0.00,,---,0.00,VWS V14.01,2013-06-22 16:26:00,
2013-06-22 09:31:00,73.0,58.3,30.09,SE,135,0.0,0.0,60,0.00,,---,0.00,VWS V14.01,2013-06-22 16:31:00,
2013-06-22 09:36:00,73.0,54.4,30.09,WSW,248,2.7,2.7,52,0.00,,---,0.00,VWS V14.01,2013-06-22 16:36:00,
2013-06-22 09:41:00,73.4,55.8,30.06,SSW,202,0.0,0.9,54,0.00,,---,0.00,VWS V14.01,2013-06-22 16:41:00,
2013-06-22 09:46:00,75.0,54.6,30.06,WSW,248,2.5,2.5,49,0.00,,---,0.00,VWS V14.01,2013-06-22 16:46:00,
2013-06-22 09:51:00,75.4,54.3,30.06,ENE,68,0.9,1.6,48,0.00,,---,0.00,VWS V14.01,2013-06-22 16:51:00,
2013-06-22 09:56:00,77.4,55.0,30.09,SSE,158,3.1,3.1,46,0.00,,---,0.00,VWS V14.01,2013-06-22 16:56:00,
2013-06-22 10:01:00,77.7,55.3,30.09,ESE,112,2.2,2.7,46,0.00,,---,0.00,VWS V14.01,2013-06-22 17:01:00,
2013-06-22 10:06:00,77.4,53.1,30.09,SSE,158,2.0,2.0,43,0.00,,---,0.00,VWS V14.01,2013-06-22 17:06:00,
2013-06-22 10:11:00,78.6,54.9,30.09,WSW,248,3.1,3.1,44,0.00,,---,0.00,VWS V14.01,2013-06-22 17:11:00,
2013-06-22 10:16:00,77.5,53.3,30.09,SSE,158,1.6,2.5,43,0.00,,---,0.00,VWS V14.01,2013-06-22 17:16:00,
2013-06-22 10:21:00,78.3,54.0,30.09,SSE,158,1.3,2.2,43,0.00,,---,0.00,VWS V14.01,2013-06-22 17:21:00,
2013-06-22 10:26:00,79.5,54.4,30.09,South,180,2.5,2.5,42,0.00,,---,0.00,VWS V14.01,2013-06-22 17:26:00,
2013-06-22 10:32:00,80.6,52.7,30.09,South,180,1.1,2.9,38,0.00,,---,0.00,VWS V14.01,2013-06-22 17:32:00,
2013-06-22 10:37:00,80.4,52.5,30.09,ENE,68,2.5,2.5,38,0.00,,---,0.00,VWS V14.01,2013-06-22 17:37:00,
2013-06-22 10:42:00,78.8,52.5,30.06,SSW,202,0.0,1.3,40,0.00,,---,0.00,VWS V14.01,2013-06-22 17:42:00,
2013-06-22 10:47:00,78.4,52.8,30.06,SSW,202,0.0,0.0,41,0.00,,---,0.00,VWS V14.01,2013-06-22 17:47:00,
2013-06-22 10:52:00,80.8,54.2,30.06,South,180,0.0,0.0,40,0.00,,---,0.00,VWS V14.01,2013-06-22 17:52:00,
2013-06-22 10:57:00,78.8,52.5,30.06,West,270,1.3,1.3,40,0.00,,---,0.00,VWS V14.01,2013-06-22 17:57:00,
2013-06-22 11:02:00,77.4,51.2,30.06,SSW,202,0.0,2.0,40,0.00,,---,0.00,VWS V14.01,2013-06-22 18:02:00,
2013-06-22 11:07:00,77.9,51.0,30.06,SSE,158,1.1,2.9,39,0.00,,---,0.00,VWS V14.01,2013-06-22 18:07:00,
2013-06-22 11:12:00,78.3,52.0,30.03,South,180,2.0,2.0,40,0.00,,---,0.00,VWS V14.01,2013-06-22 18:12:00,
2013-06-22 11:17:00,79.7,53.3,30.03,South,180,0.0,1.3,40,0.00,,---,0.00,VWS V14.01,2013-06-22 18:17:00,
2013-06-22 11:22:00,79.9,52.0,30.03,NW,315,2.0,2.0,38,0.00,,---,0.00,VWS V14.01,2013-06-22 18:22:00,
2013-06-22 11:27:00,79.7,51.2,30.03,SW,225,1.1,1.1,37,0.00,,---,0.00,VWS V14.01,2013-06-22 18:27:00,
2013-06-22 11:32:00,81.0,49.2,30.03,SSE,158,1.3,2.7,33,0.00,,---,0.00,VWS V14.01,2013-06-22 18:32:00,
2013-06-22 11:38:00,82.4,52.8,30.03,SSW,202,0.0,0.9,36,0.00,,---,0.00,VWS V14.01,2013-06-22 18:38:00,
2013-06-22 11:43:00,82.4,50.4,30.03,WNW,292,0.0,0.0,33,0.00,,---,0.00,VWS V14.01,2013-06-22 18:43:00,
2013-06-22 11:48:00,82.9,52.5,30.03,SSW,202,0.0,0.0,35,0.00,,---,0.00,VWS V14.01,2013-06-22 18:48:00,
2013-06-22 11:53:00,82.9,49.2,30.03,SW,225,0.0,0.9,31,0.00,,---,0.00,VWS V14.01,2013-06-22 18:53:00,
2013-06-22 11:58:00,84.4,51.3,30.03,SW,225,2.5,2.5,32,0.00,,---,0.00,VWS V14.01,2013-06-22 18:58:00,
2013-06-22 12:03:00,83.5,50.5,30.03,South,180,0.9,1.1,32,0.00,,---,0.00,VWS V14.01,2013-06-22 19:03:00,
2013-06-22 12:08:00,83.7,49.8,30.03,SSW,202,3.4,3.8,31,0.00,,---,0.00,VWS V14.01,2013-06-22 19:08:00,
2013-06-22 12:13:00,83.3,49.5,30.03,South,180,1.6,1.6,31,0.00,,---,0.00,VWS V14.01,2013-06-22 19:13:00,
2013-06-22 12:18:00,82.9,50.1,30.03,South,180,2.0,2.9,32,0.00,,---,0.00,VWS V14.01,2013-06-22 19:18:00,
2013-06-22 12:23:00,83.1,49.4,30.03,SE,135,2.5,2.5,31,0.00,,---,0.00,VWS V14.01,2013-06-22 19:23:00,
2013-06-22 12:28:00,83.1,48.5,30.03,NNW,338,4.0,4.0,30,0.00,,---,0.00,VWS V14.01,2013-06-22 19:28:00,
2013-06-22 12:33:00,82.9,47.5,30.03,SW,225,0.9,2.5,29,0.00,,---,0.00,VWS V14.01,2013-06-22 19:33:00,
2013-06-22 12:38:00,82.0,47.6,30.03,SSE,158,0.0,2.5,30,0.00,,---,0.00,VWS V14.01,2013-06-22 19:38:00,
2013-06-22 12:43:00,81.7,47.3,30.03,South,180,1.3,2.5,30,0.00,,---,0.00,VWS V14.01,2013-06-22 19:43:00,
2013-06-22 12:48:00,83.8,49.1,30.03,SSE,158,1.3,2.7,30,0.00,,---,0.00,VWS V14.01,2013-06-22 19:48:00,
2013-06-22 12:53:00,83.7,49.0,30.03,SSW,202,0.0,1.3,30,0.00,,---,0.00,VWS V14.01,2013-06-22 19:53:00,
2013-06-22 12:58:00,82.4,47.0,30.00,South,180,2.9,2.9,29,0.00,,---,0.00,VWS V14.01,2013-06-22 19:58:00,
2013-06-22 13:03:00,81.9,46.5,30.00,SSW,202,0.0,2.0,29,0.00,,---,0.00,VWS V14.01,2013-06-22 20:03:00,
2013-06-22 13:09:00,82.2,47.7,30.00,SW,225,2.0,2.0,30,0.00,,---,0.00,VWS V14.01,2013-06-22 20:09:00,
2013-06-22 13:14:00,81.5,45.3,30.00,South,180,0.0,0.0,28,0.00,,---,0.00,VWS V14.01,2013-06-22 20:14:00,
2013-06-22 13:19:00,82.2,46.8,30.00,SW,225,0.0,1.6,29,0.00,,---,0.00,VWS V14.01,2013-06-22 20:19:00,
2013-06-22 13:24:00,81.7,45.4,30.00,South,180,1.6,1.6,28,0.00,,---,0.00,VWS V14.01,2013-06-22 20:24:00,
2013-06-22 13:29:00,81.1,45.9,30.00,SSW,202,2.2,2.2,29,0.00,,---,0.00,VWS V14.01,2013-06-22 20:29:00,
2013-06-22 13:34:00,80.4,46.2,30.00,South,180,0.0,0.9,30,0.00,,---,0.00,VWS V14.01,2013-06-22 20:34:00,
2013-06-22 13:39:00,81.1,46.8,30.00,SSE,158,0.0,0.0,30,0.00,,---,0.00,VWS V14.01,2013-06-22 20:39:00,
2013-06-22 13:44:00,79.7,44.7,30.00,WSW,248,1.6,2.9,29,0.00,,---,0.00,VWS V14.01,2013-06-22 20:44:00,
2013-06-22 13:49:00,80.1,43.1,30.00,NNW,338,1.1,1.1,27,0.00,,---,0.00,VWS V14.01,2013-06-22 20:49:00,
2013-06-22 13:54:00,80.6,43.6,30.00,East,90,3.4,3.4,27,0.00,,---,0.00,VWS V14.01,2013-06-22 20:54:00,
2013-06-22 13:59:00,80.4,41.4,29.97,SE,135,2.2,4.3,25,0.00,,---,0.00,VWS V14.01,2013-06-22 20:59:00,
2013-06-22 14:04:00,81.0,41.9,29.97,West,270,1.6,1.6,25,0.00,,---,0.00,VWS V14.01,2013-06-22 21:04:00,
2013-06-22 14:09:00,80.2,41.3,29.97,SE,135,0.0,1.3,25,0.00,,---,0.00,VWS V14.01,2013-06-22 21:09:00,
2013-06-22 14:14:00,80.2,42.3,29.97,SSW,202,2.0,2.9,26,0.00,,---,0.00,VWS V14.01,2013-06-22 21:14:00,
2013-06-22 14:19:00,81.0,40.8,29.97,WSW,248,1.1,1.3,24,0.00,,---,0.00,VWS V14.01,2013-06-22 21:19:00,
2013-06-22 14:24:00,81.5,42.3,29.94,SSE,158,3.4,3.6,25,0.00,,---,0.00,VWS V14.01,2013-06-22 21:24:00,
2013-06-22 14:29:00,80.2,41.3,29.94,West,270,3.4,3.4,25,0.00,,---,0.00,VWS V14.01,2013-06-22 21:29:00,
2013-06-22 14:34:00,80.6,41.6,29.94,SSE,158,0.0,2.2,25,0.00,,---,0.00,VWS V14.01,2013-06-22 21:34:00,
2013-06-22 14:39:00,81.5,39.0,29.97,South,180,0.0,1.1,22,0.00,,---,0.00,VWS V14.01,2013-06-22 21:39:00,
2013-06-22 14:44:00,82.0,40.6,29.97,South,180,2.9,2.9,23,0.00,,---,0.00,VWS V14.01,2013-06-22 21:44:00,
2013-06-22 14:49:00,82.0,41.7,29.97,South,180,0.0,1.3,24,0.00,,---,0.00,VWS V14.01,2013-06-22 21:49:00,
2013-06-22 14:54:00,82.0,40.6,29.97,SW,225,1.1,1.1,23,0.00,,---,0.00,VWS V14.01,2013-06-22 21:54:00,
2013-06-22 15:00:00,81.1,38.7,29.97,WNW,292,2.2,2.2,22,0.00,,---,0.00,VWS V14.01,2013-06-22 22:00:00,
2013-06-22 15:05:00,80.4,39.3,29.97,WSW,248,2.0,2.0,23,0.00,,---,0.00,VWS V14.01,2013-06-22 22:05:00,
2013-06-22 15:10:00,80.2,41.3,29.97,South,180,1.3,2.2,25,0.00,,---,0.00,VWS V14.01,2013-06-22 22:10:00,
2013-06-22 15:15:00,79.9,41.0,29.97,East,90,0.0,0.9,25,0.00,,---,0.00,VWS V14.01,2013-06-22 22:15:00,
2013-06-22 15:20:00,79.7,41.8,29.97,ENE,68,2.0,2.0,26,0.00,,---,0.00,VWS V14.01,2013-06-22 22:20:00,
2013-06-22 15:25:00,80.2,43.3,29.94,ENE,68,2.7,3.6,27,0.00,,---,0.00,VWS V14.01,2013-06-22 22:25:00,
2013-06-22 15:30:00,80.6,42.6,29.94,NNW,338,0.0,1.3,26,0.00,,---,0.00,VWS V14.01,2013-06-22 22:30:00,
2013-06-22 15:35:00,81.0,42.9,29.94,WSW,248,2.5,2.7,26,0.00,,---,0.00,VWS V14.01,2013-06-22 22:35:00,
2013-06-22 15:40:00,81.9,43.7,29.94,SE,135,0.0,0.0,26,0.00,,---,0.00,VWS V14.01,2013-06-22 22:40:00,
2013-06-22 15:45:00,82.0,44.8,29.94,SSW,202,0.0,2.9,27,0.00,,---,0.00,VWS V14.01,2013-06-22 22:45:00,
2013-06-22 15:50:00,82.0,45.8,29.94,South,180,0.0,0.0,28,0.00,,---,0.00,VWS V14.01,2013-06-22 22:50:00,
2013-06-22 15:55:00,82.4,47.0,29.91,WSW,248,0.9,0.9,29,0.00,,---,0.00,VWS V14.01,2013-06-22 22:55:00,
2013-06-22 16:00:00,82.0,46.7,29.91,South,180,1.6,1.6,29,0.00,,---,0.00,VWS V14.01,2013-06-22 23:00:00,
2013-06-22 16:05:00,81.9,45.6,29.91,South,180,1.1,3.4,28,0.00,,---,0.00,VWS V14.01,2013-06-22 23:05:00,
2013-06-22 16:10:00,81.9,44.6,29.91,NNE,22,0.0,2.0,27,0.00,,---,0.00,VWS V14.01,2013-06-22 23:10:00,
2013-06-22 16:15:00,82.0,44.8,29.91,South,180,0.0,2.0,27,0.00,,---,0.00,VWS V14.01,2013-06-22 23:15:00,
2013-06-22 16:20:00,81.5,43.3,29.91,South,180,1.3,1.3,26,0.00,,---,0.00,VWS V14.01,2013-06-22 23:20:00,
2013-06-22 16:25:00,81.0,41.9,29.91,NE,45,1.3,1.3,25,0.00,,---,0.00,VWS V14.01,2013-06-22 23:25:00,
2013-06-22 16:30:00,80.2,42.3,29.91,NE,45,0.0,0.0,26,0.00,,---,0.00,VWS V14.01,2013-06-22 23:30:00,
2013-06-22 16:35:00,79.7,44.7,29.91,South,180,2.0,2.0,29,0.00,,---,0.00,VWS V14.01,2013-06-22 23:35:00,
2013-06-22 16:41:00,78.8,44.8,29.91,SW,225,1.6,1.6,30,0.00,,---,0.00,VWS V14.01,2013-06-22 23:41:00,
2013-06-22 16:46:00,78.3,45.2,29.91,South,180,0.0,0.0,31,0.00,,---,0.00,VWS V14.01,2013-06-22 23:46:00,
2013-06-22 16:51:00,78.1,45.0,29.91,SW,225,0.0,0.0,31,0.00,,---,0.00,VWS V14.01,2013-06-22 23:51:00,
2013-06-22 16:56:00,78.1,45.0,29.91,SSW,202,0.0,0.0,31,0.00,,---,0.00,VWS V14.01,2013-06-22 23:56:00,
2013-06-22 17:01:00,78.8,45.6,29.91,West,270,0.0,2.0,31,0.00,,---,0.00,VWS V14.01,2013-06-23 00:01:00,
2013-06-22 17:06:00,79.5,46.3,29.91,South,180,1.1,1.6,31,0.00,,---,0.00,VWS V14.01,2013-06-23 00:06:00,
2013-06-22 17:11:00,81.0,46.6,29.88,SE,135,2.9,5.4,30,0.00,,---,0.00,VWS V14.01,2013-06-23 00:11:00,
2013-06-22 17:16:00,80.8,46.5,29.88,WSW,248,0.0,0.0,30,0.00,,---,0.00,VWS V14.01,2013-06-23 00:16:00,
2013-06-22 17:21:00,81.5,47.1,29.88,South,180,1.1,2.2,30,0.00,,---,0.00,VWS V14.01,2013-06-23 00:21:00,
2013-06-22 17:26:00,81.5,47.1,29.88,SSE,158,1.6,1.6,30,0.00,,---,0.00,VWS V14.01,2013-06-23 00:26:00,
2013-06-22 17:31:00,81.3,46.1,29.88,SSE,158,0.0,0.0,29,0.00,,---,0.00,VWS V14.01,2013-06-23 00:31:00,
2013-06-22 17:36:00,81.0,46.6,29.88,West,270,1.1,1.3,30,0.00,,---,0.00,VWS V14.01,2013-06-23 00:36:00,
2013-06-22 17:41:00,79.7,45.6,29.85,SSW,202,2.2,2.5,30,0.00,,---,0.00,VWS V14.01,2013-06-23 00:41:00,
2013-06-22 17:46:00,78.4,44.5,29.85,South,180,0.0,2.0,30,0.00,,---,0.00,VWS V14.01,2013-06-23 00:46:00,
2013-06-22 17:51:00,78.3,44.3,29.85,SW,225,2.0,2.0,30,0.00,,---,0.00,VWS V14.01,2013-06-23 00:51:00,
2013-06-22 17:56:00,77.4,44.4,29.85,South,180,0.0,0.9,31,0.00,,---,0.00,VWS V14.01,2013-06-23 00:56:00,
2013-06-22 18:01:00,76.8,44.8,29.85,SSE,158,0.0,0.0,32,0.00,,---,0.00,VWS V14.01,2013-06-23 01:01:00,
2013-06-22 18:06:00,76.8,44.8,29.85,South,180,0.0,0.0,32,0.00,,---,0.00,VWS V14.01,2013-06-23 01:06:00,
2013-06-22 18:11:00,77.2,45.1,29.85,South,180,1.6,3.4,32,0.00,,---,0.00,VWS V14.01,2013-06-23 01:11:00,
2013-06-22 18:16:00,76.8,44.8,29.85,SW,225,0.0,0.0,32,0.00,,---,0.00,VWS V14.01,2013-06-23 01:16:00,
2013-06-22 18:21:00,76.8,44.8,29.85,SW,225,0.0,0.0,32,0.00,,---,0.00,VWS V14.01,2013-06-23 01:21:00,
2013-06-22 18:26:00,76.8,44.8,29.82,South,180,0.0,2.0,32,0.00,,---,0.00,VWS V14.01,2013-06-23 01:26:00,
2013-06-22 18:31:00,76.6,44.6,29.82,NNW,338,0.0,0.0,32,0.00,,---,0.00,VWS V14.01,2013-06-23 01:31:00,
2013-06-22 18:36:00,76.6,45.4,29.82,SW,225,0.0,0.0,33,0.00,,---,0.00,VWS V14.01,2013-06-23 01:36:00,
2013-06-22 18:42:00,76.1,44.9,29.85,SSE,158,1.6,1.6,33,0.00,,---,0.00,VWS V14.01,2013-06-23 01:42:00,
2013-06-22 18:47:00,75.9,44.8,29.85,SSE,158,0.0,0.0,33,0.00,,---,0.00,VWS V14.01,2013-06-23 01:47:00,
2013-06-22 18:52:00,75.6,45.2,29.85,SSE,158,0.0,0.0,34,0.00,,---,0.00,VWS V14.01,2013-06-23 01:52:00,
2013-06-22 18:57:00,75.2,44.9,29.85,South,180,0.0,0.0,34,0.00,,---,0.00,VWS V14.01,2013-06-23 01:57:00,
2013-06-22 19:02:00,75.0,45.5,29.85,South,180,0.0,0.0,35,0.00,,---,0.00,VWS V14.01,2013-06-23 02:02:00,
2013-06-22 19:07:00,74.7,46.0,29.85,South,180,0.0,0.0,36,0.00,,---,0.00,VWS V14.01,2013-06-23 02:07:00,
2013-06-22 19:12:00,74.3,44.9,29.85,South,180,0.0,0.0,35,0.00,,---,0.00,VWS V14.01,2013-06-23 02:12:00,
2013-06-22 19:17:00,73.9,44.6,29.85,South,180,0.0,0.0,35,0.00,,---,0.00,VWS V14.01,2013-06-23 02:17:00,
2013-06-22 19:22:00,73.8,45.2,29.85,South,180,0.0,0.0,36,0.00,,---,0.00,VWS V14.01,2013-06-23 02:22:00,
2013-06-22 19:27:00,73.8,45.2,29.85,South,180,0.0,0.0,36,0.00,,---,0.00,VWS V14.01,2013-06-23 02:27:00,
2013-06-22 19:32:00,73.8,45.2,29.85,South,180,0.0,0.0,36,0.00,,---,0.00,VWS V14.01,2013-06-23 02:32:00,
2013-06-22 19:37:00,73.6,45.7,29.85,South,180,0.0,0.0,37,0.00,,---,0.00,VWS V14.01,2013-06-23 02:37:00,
2013-06-22 19:42:00,73.2,46.1,29.85,South,180,0.0,0.0,38,0.00,,---,0.00,VWS V14.01,2013-06-23 02:42:00,
2013-06-22 19:47:00,72.7,46.3,29.85,South,180,0.0,0.0,39,0.00,,---,0.00,VWS V14.01,2013-06-23 02:47:00,
2013-06-22 19:52:00,72.1,47.2,29.85,South,180,0.0,0.0,41,0.00,,---,0.00,VWS V14.01,2013-06-23 02:52:00,
2013-06-22 19:58:00,71.2,47.0,29.85,South,180,0.0,0.0,42,0.00,,---,0.00,VWS V14.01,2013-06-23 02:58:00,
2013-06-22 20:03:00,70.7,46.5,29.85,South,180,0.0,0.0,42,0.00,,---,0.00,VWS V14.01,2013-06-23 03:03:00,
2013-06-22 20:08:00,70.2,46.6,29.85,SSW,202,0.0,0.0,43,0.00,,---,0.00,VWS V14.01,2013-06-23 03:08:00,
2013-06-22 20:13:00,69.6,47.4,29.85,SSW,202,0.0,0.0,45,0.00,,---,0.00,VWS V14.01,2013-06-23 03:13:00,
2013-06-22 20:18:00,69.3,47.6,29.85,West,270,0.0,0.0,46,0.00,,---,0.00,VWS V14.01,2013-06-23 03:18:00,
2013-06-22 20:23:00,69.1,48.6,29.85,WSW,248,1.1,1.1,48,0.00,,---,0.00,VWS V14.01,2013-06-23 03:23:00,
2013-06-22 20:28:00,68.9,47.9,29.85,SW,225,0.0,0.0,47,0.00,,---,0.00,VWS V14.01,2013-06-23 03:28:00,
2013-06-22 20:33:00,68.4,47.4,29.85,ESE,112,0.0,0.0,47,0.00,,---,0.00,VWS V14.01,2013-06-23 03:33:00,
2013-06-22 20:38:00,68.2,48.3,29.85,South,180,0.0,0.0,49,0.00,,---,0.00,VWS V14.01,2013-06-23 03:38:00,
2013-06-22 20:43:00,67.6,48.9,29.85,SSW,202,0.0,0.0,51,0.00,,---,0.00,VWS V14.01,2013-06-23 03:43:00,
2013-06-22 20:48:00,67.3,49.1,29.85,SSW,202,0.0,0.0,52,0.00,,---,0.00,VWS V14.01,2013-06-23 03:48:00,
2013-06-22 20:53:00,66.9,48.2,29.85,South,180,0.0,0.0,51,0.00,,---,0.00,VWS V14.01,2013-06-23 03:53:00,
2013-06-22 20:58:00,66.6,48.9,29.85,SSE,158,0.0,0.0,53,0.00,,---,0.00,VWS V14.01,2013-06-23 03:58:00,
2013-06-22 21:01:00,66.4,49.2,29.85,SSE,158,0.0,0.0,54,0.00,,---,0.00,VWS V14.01,2013-06-23 04:01:00,
2013-06-22 21:02:00,66.2,49.6,29.85,SSE,158,0.0,0.0,55,0.00,,---,0.00,VWS V14.01,2013-06-23 04:02:00,
2013-06-22 21:04:00,66.2,49.6,29.85,SSE,158,0.0,0.0,55,0.00,,---,0.00,VWS V14.01,2013-06-23 04:04:00,
2013-06-22 21:09:00,65.8,50.2,29.82,South,180,0.0,0.0,57,0.00,,---,0.00,VWS V14.01,2013-06-23 04:09:00,
2013-06-22 21:14:00,65.5,49.9,29.82,South,180,0.0,0.0,57,0.00,,---,0.00,VWS V14.01,2013-06-23 04:14:00,
2013-06-22 21:19:00,65.3,49.7,29.82,South,180,0.0,0.0,57,0.00,,---,0.00,VWS V14.01,2013-06-23 04:19:00,
2013-06-22 21:24:00,64.9,49.8,29.85,South,180,0.0,0.0,58,0.00,,---,0.00,VWS V14.01,2013-06-23 04:24:00,
2013-06-22 21:29:00,64.8,49.7,29.85,South,180,0.0,0.0,58,0.00,,---,0.00,VWS V14.01,2013-06-23 04:29:00,
2013-06-22 21:34:00,64.6,50.4,29.85,South,180,0.0,0.0,60,0.00,,---,0.00,VWS V14.01,2013-06-23 04:34:00,
2013-06-22 21:39:00,64.2,50.5,29.85,South,180,0.0,0.0,61,0.00,,---,0.00,VWS V14.01,2013-06-23 04:39:00,
2013-06-22 21:44:00,64.2,50.9,29.85,South,180,0.0,0.0,62,0.00,,---,0.00,VWS V14.01,2013-06-23 04:44:00,
2013-06-22 21:49:00,64.0,52.0,29.85,South,180,0.0,0.0,65,0.00,,---,0.00,VWS V14.01,2013-06-23 04:49:00,
2013-06-22 21:54:00,64.0,52.5,29.85,South,180,0.0,0.0,66,0.00,,---,0.00,VWS V14.01,2013-06-23 04:54:00,
2013-06-22 21:59:00,63.9,52.7,29.85,South,180,0.0,0.0,67,0.00,,---,0.00,VWS V14.01,2013-06-23 04:59:00,
2013-06-22 22:04:00,63.9,53.1,29.85,South,180,0.0,0.0,68,0.00,,---,0.00,VWS V14.01,2013-06-23 05:04:00,
2013-06-22 22:09:00,63.7,52.9,29.85,South,180,0.0,0.0,68,0.00,,---,0.00,VWS V14.01,2013-06-23 05:09:00,
2013-06-22 22:14:00,63.5,52.8,29.85,SSW,202,0.0,0.0,68,0.00,,---,0.00,VWS V14.01,2013-06-23 05:14:00,
2013-06-22 22:19:00,63.5,53.5,29.85,SSW,202,0.0,0.0,70,0.00,,---,0.00,VWS V14.01,2013-06-23 05:19:00,
2013-06-22 22:24:00,63.3,53.4,29.85,SSW,202,0.0,0.0,70,0.00,,---,0.00,VWS V14.01,2013-06-23 05:24:00,
2013-06-22 22:29:00,63.1,53.2,29.85,South,180,0.0,0.0,70,0.00,,---,0.00,VWS V14.01,2013-06-23 05:29:00,
2013-06-22 22:34:00,63.0,53.4,29.85,South,180,0.0,0.0,71,0.00,,---,0.00,VWS V14.01,2013-06-23 05:34:00,
2013-06-22 22:39:00,62.8,53.2,29.85,South,180,0.0,0.0,71,0.00,,---,0.00,VWS V14.01,2013-06-23 05:39:00,
2013-06-22 22:44:00,62.6,53.5,29.85,South,180,0.0,0.0,72,0.00,,---,0.00,VWS V14.01,2013-06-23 05:44:00,
2013-06-22 22:49:00,62.4,53.3,29.85,ESE,112,0.0,0.0,72,0.00,,---,0.00,VWS V14.01,2013-06-23 05:49:00,
2013-06-22 22:54:00,62.2,53.1,29.85,SE,135,0.0,0.0,72,0.00,,---,0.00,VWS V14.01,2013-06-23 05:54:00,
2013-06-22 22:59:00,62.1,53.3,29.85,SSE,158,0.0,0.0,73,0.00,,---,0.00,VWS V14.01,2013-06-23 05:59:00,
2013-06-22 23:02:00,61.9,53.1,29.85,SSE,158,0.0,0.0,73,0.00,,---,0.00,VWS V14.01,2013-06-23 06:02:00,
2013-06-22 23:07:00,61.9,52.8,29.85,SSE,158,0.0,0.0,72,0.00,,---,0.00,VWS V14.01,2013-06-23 06:07:00,
2013-06-22 23:12:00,61.7,53.0,29.85,South,180,0.0,0.0,73,0.00,,---,0.00,VWS V14.01,2013-06-23 06:12:00,
2013-06-22 23:17:00,61.5,53.2,29.85,South,180,0.0,0.0,74,0.00,,---,0.00,VWS V14.01,2013-06-23 06:17:00,
2013-06-22 23:22:00,61.3,53.0,29.85,South,180,0.0,0.0,74,0.00,,---,0.00,VWS V14.01,2013-06-23 06:22:00,
2013-06-22 23:27:00,61.2,52.8,29.85,South,180,0.0,0.0,74,0.00,,---,0.00,VWS V14.01,2013-06-23 06:27:00,
2013-06-22 23:32:00,61.0,53.0,29.85,South,180,0.0,0.0,75,0.00,,---,0.00,VWS V14.01,2013-06-23 06:32:00,
2013-06-22 23:37:00,61.0,53.0,29.85,South,180,0.0,0.0,75,0.00,,---,0.00,VWS V14.01,2013-06-23 06:37:00,
2013-06-22 23:42:00,60.8,53.5,29.85,South,180,0.0,0.0,77,0.00,,---,0.00,VWS V14.01,2013-06-23 06:42:00,
2013-06-22 23:47:00,60.8,53.2,29.85,South,180,0.0,0.0,76,0.00,,---,0.00,VWS V14.01,2013-06-23 06:47:00,
2013-06-22 23:52:00,60.6,53.7,29.85,South,180,0.0,0.0,78,0.00,,---,0.00,VWS V14.01,2013-06-23 06:52:00,
2013-06-22 23:57:00,60.6,53.7,29.85,South,180,0.0,0.0,78,0.00,,---,0.00,VWS V14.01,2013-06-23 06:57:00,